DW1520 Weather Reports


time (UTC)temp
F
wind
direction
speed
knots
gust
knots
rain 1hr
in
rain 24hr
in
rain mn
in
humidity
%
barometer
mb
20260903200506 82 156 1.7 6.1 0.00 0.11 0.11 70 1006.7
20260903200006 82 157 3.5 6.1 0.00 0.11 0.11 69 1006.7
20260903195009 82 156 2.6 7.0 0.00 0.11 0.11 67 1006.7
20260903194506 82 179 2.6 10.4 0.00 0.11 0.11 66 1006.8
20260903194006 82 180 2.6 10.4 0.00 0.11 0.11 66 1006.8
20260903193506 82 170 1.7 7.8 0.00 0.11 0.11 66 1006.8
20260903193007 82 172 1.7 7.0 0.00 0.11 0.11 67 1006.9
20260903192506 82 162 1.7 4.3 0.00 0.11 0.11 65 1007.0
20260903192006 83 170 3.5 7.8 0.00 0.11 0.11 65 1007.1
20260903191506 83 163 2.6 5.2 0.00 0.11 0.11 64 1007.2
20260903191006 83 180 3.5 7.8 0.00 0.11 0.11 63 1007.3
20260903190506 83 160 2.6 7.0 0.00 0.11 0.11 65 1007.4
20260903190006 83 196 1.7 5.2 0.00 0.11 0.11 67 1007.3
20260903185006 83 176 1.7 5.2 0.00 0.11 0.11 65 1007.5
20260903184006 82 155 0.9 4.3 0.00 0.11 0.11 67 1007.4
20260903183506 82 163 2.6 8.7 0.00 0.11 0.11 68 1007.3
20260903183006 82 165 2.6 8.7 0.00 0.11 0.11 66 1007.4
20260903182506 82 164 1.7 5.2 0.00 0.11 0.11 65 1007.5
20260903182006 82 171 4.3 7.0 0.00 0.11 0.11 67 1007.5
20260903181006 81 106 1.7 7.0 0.00 0.11 0.11 71 1007.6
20260903180506 80 169 1.7 5.2 0.00 0.11 0.11 71 1007.9
20260903180006 81 163 2.6 4.3 0.00 0.11 0.11 70 1007.8
20260903175506 81 166 2.6 6.1 0.00 0.11 0.11 71 1007.7
20260903175006 80 176 1.7 5.2 0.00 0.11 0.11 74 1007.7
20260903174506 80 172 1.7 4.3 0.00 0.11 0.11 76 1007.7
20260903173006 80 170 1.7 5.2 0.00 0.11 0.11 73 1007.7
20260903172506 80 122 0.9 5.2 0.00 0.11 0.11 73 1007.7
20260903172006 80 159 2.6 5.2 0.00 0.11 0.11 72 1007.7
20260903171006 80 114 1.7 5.2 0.00 0.11 0.11 74 1007.5
20260903170506 79 155 2.6 4.3 0.00 0.11 0.11 76 1007.5
20260903170006 79 159 0.9 4.3 0.00 0.11 0.11 77 1007.5
20260903165506 79 159 1.7 8.7 0.00 0.11 0.11 76 1007.6
20260903165006 79 160 2.6 5.2 0.00 0.11 0.11 75 1007.7
20260903164506 79 157 2.6 7.8 0.00 0.11 0.11 77 1007.7
20260903163506 78 155 0.9 2.6 0.00 0.11 0.11 81 1007.4
20260903163006 77 155 0.9 2.6 0.00 0.11 0.11 83 1007.3
20260903162506 77 155 1.7 2.6 0.00 0.11 0.11 84 1007.2
20260903162007 76 155 0.9 5.2 0.00 0.11 0.11 85 1007.3
20260903161007 76 152 2.6 5.2 0.00 0.11 0.11 85 1007.3
20260903160506 75 146 1.7 5.2 0.00 0.11 0.11 87 1007.2
20260903155506 74 161 1.7 2.6 0.00 0.11 0.11 91 1007.3
20260903155006 74 161 0.9 4.3 0.00 0.11 0.11 92 1007.5
20260903154506 73 161 0.9 2.6 0.00 0.11 0.11 92 1007.4
20260903153506 72 161 0.9 4.3 0.00 0.11 0.11 92 1007.7
20260903152006 70 160 1.7 5.2 0.00 0.11 0.11 92 1007.8
20260903150506 70 160 1.7 5.2 0.00 0.11 0.11 92 1007.7
20260903150006 70 161 0.9 4.3 0.00 0.11 0.11 92 1007.7
20260903145506 70 170 1.7 5.2 0.00 0.11 0.11 92 1007.4
20260903145006 70 155 1.7 2.6 0.00 0.11 0.11 92 1007.4
20260903144506 70 155 0.9 2.6 0.00 0.11 0.11 92 1007.8
20260903144006 70 155 0.0 2.6 0.00 0.11 0.11 92 1007.8
20260903143506 70 155 0.9 2.6 0.00 0.11 0.11 92 1007.8
20260903143006 70 153 1.7 2.6 0.00 0.11 0.11 92 1008.1
20260903142505 70 153 1.7 5.2 0.00 0.11 0.11 92 1008.1
20260903142006 70 171 1.7 2.6 0.00 0.11 0.11 92 1008.0
20260903141506 70 175 1.7 5.2 0.00 0.11 0.11 92 1008.0
20260903141006 70 175 1.7 2.6 0.00 0.11 0.11 92 1007.7
20260903140506 70 163 0.0 1.7 0.00 0.11 0.11 92 1007.6
20260903140006 70 163 0.0 2.6 0.00 0.11 0.11 92 1007.7
20260903135506 70 165 2.6 4.3 0.00 0.11 0.11 92 1008.0
20260903135006 70 66 0.0 1.7 0.00 0.11 0.11 92 1007.6
20260903134006 69 315 0.9 2.6 0.00 0.11 0.11 92 1007.7
20260903133506 69 169 1.7 4.3 0.00 0.11 0.11 92 1007.9
20260903132506 69 165 1.7 4.3 0.00 0.11 0.11 92 1008.5
20260903132006 69 165 0.9 1.7 0.00 0.11 0.11 92 1008.8
20260903131506 69 165 0.0 1.7 0.00 0.11 0.11 92 1008.8
20260903131007 69 165 0.0 0.9 0.00 0.11 0.11 92 1008.9
20260903130506 69 165 0.0 1.7 0.00 0.11 0.11 92 1008.8
20260903130006 69 165 1.7 4.3 0.00 0.11 0.11 92 1008.7
20260903125511 69 165 0.9 4.3 0.01 0.11 0.11 92 1008.4
20260903125006 69 165 1.7 2.6 0.01 0.11 0.11 92 1008.5
20260903124506 69 163 0.0 2.6 0.02 0.11 0.11 92 1009.0
20260903123006 69 163 0.9 2.6 0.03 0.11 0.11 92 1009.2
20260903122506 69 155 1.7 2.6 0.03 0.11 0.11 92 1009.2
20260903122006 69 155 1.7 2.6 0.04 0.11 0.11 92 1009.3
20260903121506 69 132 1.7 4.3 0.05 0.11 0.11 92 1009.6
20260903121006 69 175 0.0 0.0 0.05 0.11 0.11 92 1009.5
20260903120506 69 175 0.0 0.0 0.05 0.11 0.11 92 1009.6
20260903120005 69 175 0.0 0.9 0.06 0.11 0.11 92 1009.4
20260903115505 69 175 0.0 1.7 0.05 0.10 0.10 92 1009.2
20260903114505 69 175 0.0 2.6 0.05 0.09 0.09 92 1008.7
20260903114006 69 175 0.9 2.6 0.06 0.09 0.09 92 1008.4
20260903113006 70 151 1.7 2.6 0.06 0.08 0.08 91 1008.6
20260903112505 70 150 0.9 4.3 0.07 0.08 0.08 92 1008.7
20260903112006 70 150 0.9 2.6 0.06 0.07 0.07 92 1009.2
20260903111505 70 150 0.0 2.6 0.05 0.06 0.06 91 1009.1
20260903110506 70 150 0.9 2.6 0.06 0.06 0.06 91 1009.0
20260903105505 71 150 1.7 4.3 0.05 0.05 0.05 91 1008.7
20260903105006 71 143 0.9 2.6 0.04 0.04 0.04 91 1008.8
20260903104506 71 174 1.7 5.2 0.04 0.04 0.04 91 1008.9
20260903103005 71 155 1.7 5.2 0.02 0.02 0.02 90 1008.5
20260903102006 72 174 4.3 7.0 0.01 0.01 0.01 90 1008.8
20260903101506 72 165 2.6 4.3 0.01 0.01 0.01 90 1009.0
20260903101006 72 177 0.9 2.6 0.01 0.02 0.01 91 1009.4
20260903100506 72 171 1.7 7.0 0.00 0.03 0.00 91 1009.5
20260903100006 72 175 1.7 4.3 0.00 0.03 0.00 91 1009.2
20260903095006 72 157 1.7 4.3 0.00 0.03 0.00 91 1008.4
20260903094505 72 157 1.7 2.6 0.00 0.03 0.00 91 1008.2
20260903093506 71 157 0.9 2.6 0.00 0.03 0.00 91 1007.8
20260903093006 71 157 1.7 2.6 0.00 0.03 0.00 91 1007.8
20260903092505 71 157 0.9 1.7 0.00 0.03 0.00 91 1007.6
20260903091506 71 157 1.7 2.6 0.00 0.03 0.00 91 1007.7
20260903091005 71 157 0.0 1.7 0.00 0.03 0.00 91 1007.5
20260903090506 71 157 0.0 0.0 0.00 0.03 0.00 91 1007.4
20260903090005 71 157 0.0 0.0 0.00 0.03 0.00 91 1007.3
20260903085006 71 157 0.0 0.0 0.00 0.03 0.00 90 1007.4
20260903084506 71 157 0.0 1.7 0.00 0.03 0.00 90 1007.6
20260903084006 71 157 0.9 1.7 0.00 0.03 0.00 90 1007.8
20260903083506 71 157 0.0 0.0 0.00 0.03 0.00 90 1007.5
20260903083006 71 157 0.0 0.0 0.00 0.03 0.00 90 1007.4
20260903082505 71 157 0.0 0.0 0.00 0.03 0.00 90 1007.4
20260903082006 71 157 0.0 0.0 0.00 0.03 0.00 90 1007.5
20260903081506 72 157 0.0 0.0 0.00 0.03 0.00 90 1007.6
20260903081006 72 157 0.0 0.0 0.00 0.03 0.00 90 1007.5
20260903080006 72 157 0.0 1.7 0.00 0.03 0.00 90 1007.3
20260903075506 72 157 0.0 0.0 0.00 0.03 0.00 90 1007.3
20260903075006 72 157 0.0 0.0 0.00 0.03 0.00 90 1007.2
20260903074506 72 157 0.0 0.0 0.00 0.03 0.00 90 1007.2
20260903074006 72 157 0.0 0.0 0.00 0.03 0.00 89 1007.2
20260903073506 72 157 0.0 0.0 0.00 0.03 0.00 89 1007.2
20260903073006 72 157 0.0 0.0 0.00 0.03 0.00 89 1007.3
20260903072006 72 157 0.0 0.0 0.00 0.03 0.00 89 1007.4
20260903071505 72 157 0.0 0.9 0.00 0.03 0.00 89 1007.4
20260903071006 72 157 0.0 1.7 0.00 0.03 0.00 89 1007.4
20260903070506 72 157 0.0 1.7 0.00 0.03 0.00 89 1007.4
20260903070005 72 157 0.0 1.7 0.00 0.04 0.00 89 1007.5
20260903065006 73 157 0.0 1.7 0.00 0.05 0.00 89 1007.6
20260903064505 73 157 0.0 0.9 0.00 0.06 0.00 89 1007.6
20260903064006 73 157 0.0 0.9 0.00 0.09 0.00 88 1007.6
20260903063506 73 157 0.0 0.0 0.00 0.24 0.00 88 1007.6
20260903063006 73 157 0.0 0.0 0.00 0.34 0.00 88 1007.6
20260903062505 73 157 0.0 0.9 0.00 0.34 0.00 88 1007.7
20260903062005 73 157 0.0 1.7 0.00 0.34 0.00 88 1007.8
20260903061506 73 157 0.0 1.7 0.00 0.34 0.00 88 1007.8
20260903060006 73 157 0.0 0.9 0.00 0.34 0.00 89 1007.8
20260903055505 73 157 0.0 0.9 0.00 0.34 0.00 89 1007.9
20260903055006 73 157 0.0 0.9 0.00 0.34 0.00 89 1007.9
20260903054505 73 157 0.0 0.9 0.00 0.34 0.00 89 1007.8
20260903054006 73 157 0.0 0.0 0.00 0.34 0.00 89 1007.9
20260903053006 74 157 0.0 1.7 0.00 0.34 0.00 89 1007.9
20260903052506 74 157 0.0 1.7 0.00 0.34 0.00 89 1007.9
20260903052006 74 157 0.0 0.9 0.00 0.34 0.00 88 1008.0
20260903050006 74 157 0.0 1.7 0.00 0.34 0.00 88 1008.0
20260903044505 74 157 0.0 0.9 0.00 0.34 0.34 87 1008.0
20260903044006 74 157 0.9 1.7 0.00 0.35 0.34 87 1008.0
20260903043506 75 157 0.0 0.0 0.00 0.35 0.34 87 1008.0
20260903043006 75 157 0.0 1.7 0.00 0.35 0.34 87 1008.0
20260903042505 75 157 0.9 1.7 0.00 0.35 0.34 87 1008.0
20260903042005 75 157 0.9 1.7 0.00 0.35 0.34 87 1008.0
20260903041006 75 157 0.9 1.7 0.00 0.35 0.34 86 1008.1
20260903040506 75 157 0.0 0.9 0.00 0.35 0.34 86 1008.1
20260903040008 75 157 0.0 1.7 0.00 0.35 0.34 86 1008.1
20260903035505 75 157 0.0 0.9 0.00 0.35 0.34 86 1008.1
20260903035006 75 157 0.0 0.9 0.00 0.35 0.34 86 1008.2
20260903034505 75 157 0.0 0.9 0.00 0.35 0.34 86 1008.2
20260903034006 75 157 0.0 0.0 0.00 0.35 0.34 86 1008.2
20260903033506 75 157 0.0 0.0 0.00 0.35 0.34 85 1008.3
20260903033005 75 157 0.0 0.0 0.00 0.35 0.34 85 1008.3
20260903032006 75 157 0.0 0.0 0.00 0.35 0.34 85 1008.3
20260903031506 75 157 0.0 0.0 0.00 0.35 0.34 86 1008.4
20260903031005 75 157 0.0 0.0 0.00 0.35 0.34 85 1008.4
20260903030506 75 157 0.0 0.0 0.00 0.35 0.34 85 1008.4
20260903030005 75 157 0.0 0.0 0.00 0.35 0.34 85 1008.4
20260903025506 75 157 0.0 0.0 0.00 0.35 0.34 85 1008.4
20260903025006 75 157 0.0 0.0 0.00 0.35 0.34 85 1008.4
20260903024506 75 157 0.0 0.0 0.00 0.35 0.34 85 1008.4
20260903024006 75 157 0.0 0.0 0.00 0.35 0.34 84 1008.4
20260903023506 75 157 0.0 0.0 0.00 0.35 0.34 84 1008.4
20260903023006 75 157 0.0 0.0 0.00 0.35 0.34 84 1008.4
20260903022006 76 157 0.0 0.0 0.00 0.35 0.34 84 1008.2
20260903021505 76 157 0.0 0.0 0.00 0.35 0.34 84 1008.2
20260903021006 76 157 0.0 0.0 0.00 0.35 0.34 83 1008.2
20260903020506 76 157 0.0 0.0 0.00 0.35 0.34 83 1008.1
20260903020007 76 157 0.0 0.0 0.00 0.35 0.34 82 1008.1
20260903015507 76 157 0.0 0.0 0.00 0.35 0.34 82 1008.0
20260903015007 76 157 0.0 0.0 0.00 0.35 0.34 81 1008.0
20260903014506 77 157 0.0 0.0 0.00 0.35 0.34 81 1008.0
20260903014009 77 157 0.0 0.0 0.00 0.35 0.34 80 1007.9
20260903013006 77 157 0.0 0.0 0.00 0.35 0.34 79 1008.0
20260903012506 78 157 0.0 0.0 0.00 0.35 0.34 79 1007.9
20260903012007 78 157 0.0 0.0 0.00 0.35 0.34 78 1007.9
20260903011006 78 157 0.0 0.0 0.00 0.35 0.34 77 1007.8
20260903010506 79 157 0.0 0.0 0.00 0.35 0.34 76 1007.7
20260903010006 79 157 0.0 0.0 0.00 0.35 0.34 76 1007.7
20260903005505 79 157 0.0 0.0 0.00 0.35 0.34 76 1007.7
20260903005005 80 157 0.0 0.0 0.00 0.35 0.34 75 1007.7
20260903004505 80 157 0.0 0.0 0.00 0.35 0.34 74 1007.7
20260903004006 80 157 0.0 0.0 0.00 0.35 0.34 74 1007.6
20260903003006 81 157 0.0 0.9 0.00 0.35 0.34 74 1007.6
20260903002506 81 157 0.0 1.7 0.00 0.35 0.34 73 1007.6
20260903002006 81 157 0.0 1.7 0.00 0.35 0.34 73 1007.6
20260903001005 82 157 0.9 1.7 0.00 0.35 0.34 72 1007.5
20260903000006 83 157 0.9 1.7 0.00 0.35 0.34 72 1007.6
20260902235006 83 157 0.9 4.3 0.00 0.35 0.34 71 1007.6
20260902234006 83 157 0.9 5.2 0.00 0.35 0.34 71 1007.6
20260902233506 83 155 1.7 2.6 0.00 0.35 0.34 70 1007.6
20260902233006 83 155 0.9 2.6 0.00 0.35 0.34 71 1007.7
20260902232505 83 155 0.9 2.6 0.00 0.35 0.34 72 1007.6
20260902232006 83 155 0.9 2.6 0.00 0.35 0.34 72 1007.6
20260902231506 84 155 0.9 2.6 0.00 0.35 0.34 71 1007.6
20260902230505 84 155 0.9 2.6 0.00 0.35 0.34 71 1007.6
20260902230006 84 155 0.9 1.7 0.00 0.35 0.34 71 1007.6
20260902225505 84 155 0.9 2.6 0.00 0.35 0.34 70 1007.6
20260902225006 84 155 0.9 2.6 0.00 0.35 0.34 69 1007.6
20260902224505 84 155 0.0 2.6 0.00 0.35 0.34 70 1007.5
20260902224006 85 155 0.0 1.7 0.00 0.35 0.34 70 1007.5
20260902223506 85 155 1.7 2.6 0.00 0.35 0.34 69 1007.5
20260902223006 85 155 0.0 1.7 0.00 0.35 0.34 69 1007.5
20260902222506 85 155 1.7 2.6 0.00 0.35 0.34 68 1007.5
20260902221506 85 155 0.9 5.2 0.00 0.35 0.34 70 1007.5
20260902221006 85 153 1.7 5.2 0.00 0.35 0.34 69 1007.5
20260902220505 85 153 1.7 4.3 0.00 0.35 0.34 69 1007.5
20260902220006 85 152 0.9 4.3 0.00 0.35 0.34 70 1007.5
20260902215505 85 161 1.7 4.3 0.00 0.35 0.34 69 1007.5
20260902215006 85 161 0.9 1.7 0.00 0.35 0.34 69 1007.5
20260902214506 85 161 1.7 4.3 0.00 0.35 0.34 68 1007.6
20260902214005 86 161 1.7 4.3 0.00 0.35 0.34 68 1007.6
20260902213506 86 161 0.9 1.7 0.00 0.35 0.34 69 1007.6
20260902213006 86 161 2.6 5.2 0.00 0.35 0.34 67 1007.7
20260902212506 86 158 0.9 4.3 0.00 0.35 0.34 67 1007.7
20260902212006 86 141 2.6 5.2 0.00 0.35 0.34 67 1007.7
20260902211506 86 126 0.9 2.6 0.00 0.35 0.34 68 1007.8
20260902211006 86 117 0.9 2.6 0.00 0.35 0.34 68 1007.8
20260902210506 86 116 1.7 2.6 0.00 0.35 0.34 67 1007.9
20260902210006 86 162 1.7 4.3 0.00 0.35 0.34 66 1007.9
20260902205506 86 162 0.9 2.6 0.00 0.35 0.34 67 1007.9
20260902205005 86 162 0.9 4.3 0.00 0.35 0.34 68 1008.0
20260902204506 86 163 2.6 5.2 0.00 0.35 0.34 66 1008.0
20260902204005 86 160 0.9 4.3 0.00 0.35 0.34 66 1007.9
20260902203505 86 160 1.7 4.3 0.00 0.35 0.34 66 1007.9
20260902201506 86 163 1.7 4.3 0.00 0.35 0.34 67 1008.0
20260902201005 86 163 0.9 2.6 0.00 0.35 0.34 67 1007.9